,,Stat5,,Stat1,,Stat2,,Stat3,,Stat4,,Wind1,,Wind1,
time,status,PA1M_AVG,status,PR1M_SUM,status,RH1M_AVG,status,SR1M_AVG,status,TA1M_AVG,status,W1dAve1m,status,W1sAve1m,
2002-09-22, 00:00:00,VALID,918.768,VALID,0,VALID,97.5384,VALID,0,VALID,17.7438,VALID,82,VALID,0.541016,
2002-09-22, 00:01:00,VALID,918.761,VALID,0,VALID,97.5028,VALID,-0.0169808,VALID,17.7505,VALID,108,VALID,1.18997,
2002-09-22, 00:02:00,VALID,918.75,VALID,0,VALID,97.5079,VALID,-0.0509425,VALID,17.7468,VALID,114,VALID,1.11595,
2002-09-22, 00:03:00,VALID,918.738,VALID,0,VALID,97.5791,VALID,0,VALID,17.7637,VALID,128,VALID,0.876786,
2002-09-22, 00:04:00,VALID,918.734,VALID,0,VALID,97.6859,VALID,-0.0339617,VALID,17.7634,VALID,122,VALID,1.1457,
2002-09-22, 00:05:00,VALID,918.712,VALID,0,VALID,97.761,VALID,0,VALID,17.7664,VALID,122,VALID,0.951116,
2002-09-22, 00:06:00,VALID,918.707,VALID,0,VALID,97.836,VALID,0,VALID,17.7697,VALID,111,VALID,0.801683,
2002-09-22, 00:07:00,VALID,918.702,VALID,0,VALID,97.9275,VALID,-0.0339617,VALID,17.7598,VALID,137,VALID,1.13354,
2002-09-22, 00:08:00,VALID,918.688,VALID,0,VALID,98.0127,VALID,0,VALID,17.7568,VALID,116,VALID,0.830529,
2002-09-22, 00:09:00,VALID,918.679,VALID,0,VALID,98.0979,VALID,-0.0169808,VALID,17.751,VALID,126,VALID,1.25103,
2002-09-22, 00:10:00,VALID,918.676,VALID,0,VALID,98.1831,VALID,-0.0169808,VALID,17.7441,VALID,120,VALID,0.932726,
2002-09-22, 00:11:00,VALID,918.659,VALID,0,VALID,98.2315,VALID,-0.0509425,VALID,17.7277,VALID,124,VALID,1.20376,
2002-09-22, 00:12:00,VALID,918.637,VALID,0,VALID,98.3192,VALID,-0.0339617,VALID,17.7279,VALID,143,VALID,1.31931,
2002-09-22, 00:13:00,VALID,918.623,VALID,0,VALID,98.3586,VALID,-0.0339617,VALID,17.7376,VALID,149,VALID,1.40502,
2002-09-22, 00:14:00,VALID,918.603,VALID,0,VALID,98.3561,VALID,-0.0339617,VALID,17.7475,VALID,147,VALID,1.47002,
2002-09-22, 00:15:00,VALID,918.59,VALID,0,VALID,98.3217,VALID,-0.0169808,VALID,17.7634,VALID,140,VALID,1.5193,
2002-09-22, 00:16:00,VALID,918.567,VALID,0,VALID,98.281,VALID,-0.0339617,VALID,17.76,VALID,131,VALID,1.15255,
2002-09-22, 00:17:00,VALID,918.571,VALID,0,VALID,98.234,VALID,0.0169808,VALID,17.7755,VALID,130,VALID,0.985008,
2002-09-22, 00:18:00,VALID,918.565,VALID,0,VALID,98.206,VALID,0.0509425,VALID,17.7817,VALID,121,VALID,0.811415,
2002-09-22, 00:19:00,VALID,918.57,VALID,0,VALID,98.1704,VALID,0.0679233,VALID,17.7847,VALID,118,VALID,1.03495,
2002-09-22, 00:20:00,VALID,918.561,VALID,0,VALID,98.1539,VALID,0.0509425,VALID,17.7785,VALID,117,VALID,0.947635,
2002-09-22, 00:21:00,VALID,918.56,VALID,0,VALID,98.1374,VALID,0.0679233,VALID,17.7847,VALID,112,VALID,1.13492,
2002-09-22, 00:22:00,VALID,918.56,VALID,0,VALID,98.1183,VALID,0.0679233,VALID,17.7778,VALID,98,VALID,0.870739,
2002-09-22, 00:23:00,VALID,918.555,VALID,0,VALID,98.0738,VALID,0.101885,VALID,17.7912,VALID,96,VALID,1.23015,
2002-09-22, 00:24:00,VALID,918.544,VALID,0,VALID,98.0356,VALID,0.101885,VALID,17.7981,VALID,98,VALID,1.14638,
2002-09-22, 00:25:00,VALID,918.536,VALID,0,VALID,97.9962,VALID,0.101885,VALID,17.7978,VALID,112,VALID,1.58594,
2002-09-22, 00:26:00,VALID,918.521,VALID,0,VALID,97.9415,VALID,0.0849042,VALID,17.7972,VALID,103,VALID,1.08018,
2002-09-22, 00:27:00,VALID,918.513,VALID,0,VALID,97.8703,VALID,0.0679233,VALID,17.8168,VALID,103,VALID,1.0259,
2002-09-22, 00:28:00,VALID,918.5,VALID,0,VALID,97.8156,VALID,0.0509425,VALID,17.82,VALID,91,VALID,0.933008,
2002-09-22, 00:29:00,VALID,918.496,VALID,0,VALID,97.7533,VALID,0.0679233,VALID,17.8294,VALID,87,VALID,0.817555,
2002-09-22, 00:30:00,VALID,918.493,VALID,0,VALID,97.7533,VALID,0.0849042,VALID,17.8463,VALID,74,VALID,0.726974,
2002-09-22, 00:31:00,VALID,918.479,VALID,0,VALID,97.7444,VALID,0.0679233,VALID,17.8493,VALID,46,VALID,0.990132,
2002-09-22, 00:32:00,VALID,918.479,VALID,0,VALID,97.7355,VALID,0.0169808,VALID,17.831,VALID,49,VALID,1.03146,
2002-09-22, 00:33:00,VALID,918.464,VALID,0,VALID,97.7457,VALID,-0.0339617,VALID,17.8188,VALID,53,VALID,1.18269,
2002-09-22, 00:34:00,VALID,918.455,VALID,0,VALID,97.7597,VALID,-0.0339617,VALID,17.7957,VALID,60,VALID,1.13867,
2002-09-22, 00:35:00,VALID,918.45,VALID,0,VALID,97.8334,VALID,-0.0169808,VALID,17.7667,VALID,60,VALID,0.710726,
2002-09-22, 00:36:00,VALID,918.451,VALID,0,VALID,97.8843,VALID,-0.0169808,VALID,17.7537,VALID,78,VALID,0.662829,
2002-09-22, 00:37:00,VALID,918.433,VALID,0,VALID,97.9352,VALID,0,VALID,17.7413,VALID,89,VALID,0.939503,
2002-09-22, 00:38:00,VALID,918.415,VALID,0,VALID,97.9695,VALID,-0.0509425,VALID,17.7148,VALID,99,VALID,0.906055,
2002-09-22, 00:39:00,VALID,918.399,VALID,0,VALID,97.972,VALID,-0.0339617,VALID,17.7118,VALID,84,VALID,0.842147,
2002-09-22, 00:40:00,VALID,918.39,VALID,0,VALID,97.986,VALID,0,VALID,17.7116,VALID,93,VALID,0.661258,
2002-09-22, 00:41:00,VALID,918.362,VALID,0,VALID,97.9314,VALID,0,VALID,17.7143,VALID,82,VALID,0.883024,
2002-09-22, 00:42:00,VALID,918.337,VALID,0,VALID,97.8716,VALID,-0.0169808,VALID,17.751,VALID,80,VALID,0.825921,
2002-09-22, 00:43:00,VALID,918.326,VALID,0,VALID,97.7902,VALID,-0.0509425,VALID,17.7434,VALID,101,VALID,0.491753,
2002-09-22, 00:44:00,VALID,918.309,VALID,0,VALID,97.7584,VALID,-0.0169808,VALID,17.7537,VALID,131,VALID,0.810764,
2002-09-22, 00:45:00,VALID,918.321,VALID,0,VALID,97.7406,VALID,-0.0339617,VALID,17.7634,VALID,122,VALID,0.632813,
2002-09-22, 00:46:00,VALID,918.322,VALID,0,VALID,97.7063,VALID,-0.0339617,VALID,17.7895,VALID,91,VALID,0.527027,
2002-09-22, 00:47:00,VALID,918.32,VALID,0,VALID,97.6732,VALID,0.0509425,VALID,17.7851,VALID,90,VALID,0.520433,
2002-09-22, 00:48:00,VALID,918.301,VALID,0,VALID,97.6389,VALID,0.0849042,VALID,17.7912,VALID,67,VALID,0.72574,
2002-09-22, 00:49:00,VALID,918.289,VALID,0,VALID,97.6554,VALID,0.0509425,VALID,17.7912,VALID,38,VALID,0.865473,
2002-09-22, 00:50:00,VALID,918.291,VALID,0,VALID,97.6503,VALID,0.0339617,VALID,17.7817,VALID,33,VALID,0.869792,
2002-09-22, 00:51:00,VALID,918.286,VALID,0,VALID,97.6999,VALID,0.0169808,VALID,17.7559,VALID,33,VALID,0.782095,
2002-09-22, 00:52:00,VALID,918.299,VALID,0,VALID,97.6999,VALID,0.0169808,VALID,17.7303,VALID,34,VALID,0.676258,
2002-09-22, 00:53:00,VALID,918.285,VALID,0,VALID,97.7826,VALID,0.0509425,VALID,17.7003,VALID,41,VALID,0.575321,
2002-09-22, 00:54:00,VALID,918.284,VALID,0,VALID,97.8423,VALID,0.0509425,VALID,17.6782,VALID,65,VALID,0.505279,
2002-09-22, 00:55:00,VALID,918.263,VALID,0,VALID,97.9021,VALID,0.0679233,VALID,17.6754,VALID,74,VALID,0.808811,
2002-09-22, 00:56:00,VALID,918.253,VALID,0,VALID,98,VALID,0.0679233,VALID,17.6659,VALID,62,VALID,0.746394,
2002-09-22, 00:57:00,VALID,918.244,VALID,0,VALID,98.0611,VALID,0.0849042,VALID,17.6523,VALID,56,VALID,0.855239,
2002-09-22, 00:58:00,VALID,918.248,VALID,0,VALID,98.0852,VALID,0.0679233,VALID,17.6396,VALID,55,VALID,0.849805,
2002-09-22, 00:59:00,VALID,918.249,VALID,0,VALID,98.1399,VALID,0.0509425,VALID,17.6233,VALID,49,VALID,0.712377,
2002-09-22, 01:00:00,VALID,918.269,VALID,0,VALID,98.1908,VALID,0.0509425,VALID,17.6304,VALID,39,VALID,0.550347,
2002-09-22, 01:01:00,VALID,918.28,VALID,0,VALID,98.2365,VALID,0.0849042,VALID,17.6108,VALID,38,VALID,0.228824,
2002-09-22, 01:02:00,VALID,918.295,VALID,0,VALID,98.3077,VALID,-0.0339617,VALID,17.6115,VALID,37,VALID,0.0867188,
2002-09-22, 01:03:00,VALID,918.284,VALID,0,VALID,98.3357,VALID,-0.0339617,VALID,17.6121,VALID,36,VALID,0.00185033,
2002-09-22, 01:04:00,VALID,918.269,VALID,0,VALID,98.3764,VALID,-0.0169808,VALID,17.5919,VALID,36,VALID,0,
2002-09-22, 01:05:00,VALID,918.274,VALID,0,VALID,98.412,VALID,-0.0509425,VALID,17.5861,VALID,36,VALID,0,
2002-09-22, 01:06:00,VALID,918.251,VALID,0,VALID,98.4184,VALID,-0.0169808,VALID,17.5895,VALID,43,VALID,0.127003,
2002-09-22, 01:07:00,VALID,918.233,VALID,0,VALID,98.4069,VALID,0,VALID,17.563,VALID,91,VALID,0.493877,
2002-09-22, 01:08:00,VALID,918.221,VALID,0,VALID,98.4235,VALID,0,VALID,17.5603,VALID,93,VALID,0.661458,
2002-09-22, 01:09:00,VALID,918.21,VALID,0,VALID,98.4502,VALID,-0.0339617,VALID,17.5572,VALID,75,VALID,0.619792,
2002-09-22, 01:10:00,VALID,918.189,VALID,0,VALID,98.4794,VALID,-0.0169808,VALID,17.563,VALID,64,VALID,0.66174,
2002-09-22, 01:11:00,VALID,918.169,VALID,0,VALID,98.4909,VALID,-0.0169808,VALID,17.5766,VALID,45,VALID,0.619299,
2002-09-22, 01:12:00,VALID,918.149,VALID,0,VALID,98.4934,VALID,-0.0339617,VALID,17.5768,VALID,40,VALID,0.497713,
2002-09-22, 01:13:00,VALID,918.152,VALID,0,VALID,98.5188,VALID,-0.0339617,VALID,17.5732,VALID,38,VALID,0.463471,
2002-09-22, 01:14:00,VALID,918.134,VALID,0,VALID,98.515,VALID,-0.0679233,VALID,17.5635,VALID,37,VALID,0.456641,
2002-09-22, 01:15:00,VALID,918.124,VALID,0,VALID,98.515,VALID,-0.0339617,VALID,17.5305,VALID,39,VALID,0.402244,
2002-09-22, 01:16:00,VALID,918.116,VALID,0,VALID,98.5303,VALID,-0.0169808,VALID,17.5278,VALID,39,VALID,0.232031,
2002-09-22, 01:17:00,VALID,918.102,VALID,0,VALID,98.529,VALID,-0.0339617,VALID,17.5314,VALID,61,VALID,0.409539,
2002-09-22, 01:18:00,VALID,918.077,VALID,0,VALID,98.5023,VALID,-0.0509425,VALID,17.5086,VALID,73,VALID,0.422286,
2002-09-22, 01:19:00,VALID,918.049,VALID,0,VALID,98.5761,VALID,-0.0169808,VALID,17.5215,VALID,46,VALID,0.448057,
2002-09-22, 01:20:00,VALID,918.023,VALID,0,VALID,98.6129,VALID,0,VALID,17.5278,VALID,43,VALID,0.264453,
2002-09-22, 01:21:00,VALID,917.999,VALID,0,VALID,98.6129,VALID,-0.0169808,VALID,17.5245,VALID,43,VALID,0.271701,
2002-09-22, 01:22:00,VALID,917.999,VALID,0,VALID,98.6409,VALID,0,VALID,17.5342,VALID,42,VALID,0.217483,
2002-09-22, 01:23:00,VALID,917.982,VALID,0,VALID,98.5455,VALID,0,VALID,17.5183,VALID,42,VALID,0.206209,
2002-09-22, 01:24:00,VALID,917.975,VALID,0,VALID,98.4998,VALID,-0.0509425,VALID,17.4856,VALID,42,VALID,0.308712,
2002-09-22, 01:25:00,VALID,917.974,VALID,0,VALID,98.543,VALID,-0.0169808,VALID,17.4894,VALID,63,VALID,0.369243,
2002-09-22, 01:26:00,VALID,917.97,VALID,0,VALID,98.4883,VALID,0,VALID,17.486,VALID,82,VALID,0.364844,
2002-09-22, 01:27:00,VALID,917.964,VALID,0,VALID,98.4692,VALID,-0.0169808,VALID,17.4729,VALID,141,VALID,0.42352,
2002-09-22, 01:28:00,VALID,917.965,VALID,0,VALID,98.4235,VALID,-0.0169808,VALID,17.4731,VALID,129,VALID,0.548931,
2002-09-22, 01:29:00,VALID,917.95,VALID,0,VALID,98.412,VALID,0,VALID,17.4731,VALID,120,VALID,0.657278,
2002-09-22, 01:30:00,VALID,917.948,VALID,0,VALID,98.4387,VALID,0,VALID,17.4989,VALID,117,VALID,0.517829,
2002-09-22, 01:31:00,VALID,917.939,VALID,0,VALID,98.2289,VALID,-0.0169808,VALID,17.4925,VALID,112,VALID,0.978674,
2002-09-22, 01:32:00,VALID,917.937,VALID,0,VALID,98.0712,VALID,-0.0169808,VALID,17.4636,VALID,122,VALID,1.03906,
2002-09-22, 01:33:00,VALID,917.915,VALID,0,VALID,98,VALID,-0.0169808,VALID,17.4503,VALID,119,VALID,1.14863,
2002-09-22, 01:34:00,VALID,917.904,VALID,0,VALID,97.8983,VALID,-0.0169808,VALID,17.4569,VALID,111,VALID,1.02083,
2002-09-22, 01:35:00,VALID,917.91,VALID,0,VALID,97.8373,VALID,-0.0169808,VALID,17.4627,VALID,95,VALID,0.813767,
2002-09-22, 01:36:00,VALID,917.89,VALID,0,VALID,97.7444,VALID,-0.0339617,VALID,17.4729,VALID,91,VALID,0.791735,
2002-09-22, 01:37:00,VALID,917.87,VALID,0,VALID,97.6719,VALID,-0.0169808,VALID,17.48,VALID,95,VALID,0.921429,
2002-09-22, 01:38:00,VALID,917.855,VALID,0,VALID,97.5155,VALID,-0.0509425,VALID,17.4826,VALID,116,VALID,1.13471,
2002-09-22, 01:39:00,VALID,917.835,VALID,0,VALID,97.452,VALID,-0.0169808,VALID,17.4828,VALID,115,VALID,1.01624,
2002-09-22, 01:40:00,VALID,917.83,VALID,0,VALID,97.4291,VALID,-0.0339617,VALID,17.4826,VALID,115,VALID,1.16719,
2002-09-22, 01:41:00,VALID,917.825,VALID,0,VALID,97.4075,VALID,-0.0169808,VALID,17.5024,VALID,116,VALID,0.896034,
2002-09-22, 01:42:00,VALID,917.821,VALID,0,VALID,97.2905,VALID,0,VALID,17.5026,VALID,124,VALID,0.949436,
2002-09-22, 01:43:00,VALID,917.815,VALID,0,VALID,97.2968,VALID,-0.0169808,VALID,17.4957,VALID,128,VALID,0.647204,
2002-09-22, 01:44:00,VALID,917.816,VALID,0,VALID,97.2371,VALID,0,VALID,17.5189,VALID,124,VALID,0.627878,
2002-09-22, 01:45:00,VALID,917.806,VALID,0,VALID,97.1201,VALID,-0.0169808,VALID,17.512,VALID,101,VALID,0.516047,
2002-09-22, 01:46:00,VALID,917.799,VALID,0,VALID,96.9153,VALID,-0.0509425,VALID,17.5088,VALID,110,VALID,0.804297,
2002-09-22, 01:47:00,VALID,917.792,VALID,0,VALID,96.7564,VALID,-0.0509425,VALID,17.4991,VALID,39,VALID,0.393029,
2002-09-22, 01:48:00,VALID,917.77,VALID,0,VALID,96.8479,VALID,-0.0509425,VALID,17.5415,VALID,40,VALID,0.407652,
2002-09-22, 01:49:00,VALID,917.753,VALID,0,VALID,96.7729,VALID,-0.0509425,VALID,17.5575,VALID,75,VALID,0.568834,
2002-09-22, 01:50:00,VALID,917.716,VALID,0,VALID,96.6241,VALID,-0.0169808,VALID,17.5508,VALID,87,VALID,0.768229,
2002-09-22, 01:51:00,VALID,917.685,VALID,0,VALID,96.6534,VALID,-0.0169808,VALID,17.5346,VALID,90,VALID,0.434283,
2002-09-22, 01:52:00,VALID,917.666,VALID,0,VALID,96.6636,VALID,-0.0679233,VALID,17.5377,VALID,93,VALID,0.35918,
2002-09-22, 01:53:00,VALID,917.648,VALID,0,VALID,96.675,VALID,-0.0509425,VALID,17.528,VALID,96,VALID,0.257813,
2002-09-22, 01:54:00,VALID,917.645,VALID,0,VALID,96.7856,VALID,-0.0679233,VALID,17.5316,VALID,124,VALID,0.339343,
2002-09-22, 01:55:00,VALID,917.65,VALID,0,VALID,96.867,VALID,-0.0339617,VALID,17.5252,VALID,124,VALID,0.00431743,
2002-09-22, 01:56:00,VALID,917.653,VALID,0,VALID,96.8543,VALID,-0.0679233,VALID,17.5247,VALID,123,VALID,0.0978516,
2002-09-22, 01:57:00,VALID,917.662,VALID,0,VALID,96.8123,VALID,-0.0339617,VALID,17.509,VALID,24,VALID,0.398438,
2002-09-22, 01:58:00,VALID,917.668,VALID,0,VALID,96.7678,VALID,-0.0509425,VALID,17.483,VALID,359,VALID,0.240986,
2002-09-22, 01:59:00,VALID,917.681,VALID,0,VALID,96.7869,VALID,-0.0339617,VALID,17.4765,VALID,295,VALID,0.589433,
2002-09-22, 02:00:00,VALID,917.691,VALID,0,VALID,96.8721,VALID,-0.0339617,VALID,17.463,VALID,281,VALID,0.564103,
2002-09-22, 02:01:00,VALID,917.678,VALID,0,VALID,97.0311,VALID,-0.0169808,VALID,17.4765,VALID,281,VALID,0.398638,
2002-09-22, 02:02:00,VALID,917.688,VALID,0,VALID,97.1671,VALID,-0.0509425,VALID,17.4798,VALID,289,VALID,0.4356,
2002-09-22, 02:03:00,VALID,917.678,VALID,0,VALID,97.3134,VALID,-0.0169808,VALID,17.4636,VALID,292,VALID,0.453726,
2002-09-22, 02:04:00,VALID,917.661,VALID,0,VALID,97.2892,VALID,-0.0509425,VALID,17.4445,VALID,294,VALID,0.479167,
2002-09-22, 02:05:00,VALID,917.643,VALID,0,VALID,97.2803,VALID,-0.0679233,VALID,17.4283,VALID,294,VALID,0.162977,
2002-09-22, 02:06:00,VALID,917.625,VALID,0,VALID,97.2968,VALID,-0.0849042,VALID,17.4156,VALID,294,VALID,0.000600962,
2002-09-22, 02:07:00,VALID,917.613,VALID,0,VALID,97.2498,VALID,-0.0169808,VALID,17.396,VALID,294,VALID,0.0365287,
2002-09-22, 02:08:00,VALID,917.604,VALID,0,VALID,97.2002,VALID,-0.0509425,VALID,17.3734,VALID,294,VALID,0.0504808,
2002-09-22, 02:09:00,VALID,917.619,VALID,0,VALID,97.3197,VALID,-0.0339617,VALID,17.3732,VALID,278,VALID,0.386308,
2002-09-22, 02:10:01,VALID,917.628,VALID,0,VALID,97.438,VALID,-0.0169808,VALID,17.3872,VALID,229,VALID,0.352706,
2002-09-22, 02:11:00,VALID,917.651,VALID,0,VALID,97.513,VALID,-0.0509425,VALID,17.3601,VALID,187,VALID,0.447716,
2002-09-22, 02:12:00,VALID,917.662,VALID,0,VALID,97.5969,VALID,-0.0509425,VALID,17.3508,VALID,176,VALID,0.445946,
2002-09-22, 02:13:00,VALID,917.653,VALID,0,VALID,97.6821,VALID,-0.101885,VALID,17.3382,VALID,178,VALID,0.507241,
2002-09-22, 02:14:00,VALID,917.649,VALID,0,VALID,97.7203,VALID,-0.0509425,VALID,17.3119,VALID,180,VALID,0.510216,
2002-09-22, 02:15:00,VALID,917.643,VALID,0,VALID,97.7304,VALID,-0.0509425,VALID,17.2833,VALID,155,VALID,0.309966,
2002-09-22, 02:16:00,VALID,917.635,VALID,0,VALID,97.7737,VALID,-0.0679233,VALID,17.2645,VALID,132,VALID,0.0957031,
2002-09-22, 02:17:00,VALID,917.639,VALID,0,VALID,97.8525,VALID,-0.101885,VALID,17.2411,VALID,126,VALID,0.481771,
2002-09-22, 02:18:00,VALID,917.632,VALID,0,VALID,97.9212,VALID,-0.0339617,VALID,17.2217,VALID,142,VALID,0.762408,
2002-09-22, 02:19:00,VALID,917.633,VALID,0,VALID,97.8385,VALID,-0.0169808,VALID,17.1993,VALID,143,VALID,0.918164,
2002-09-22, 02:20:01,VALID,917.64,VALID,0,VALID,97.6656,VALID,-0.0339617,VALID,17.1961,VALID,145,VALID,1.0919,
2002-09-22, 02:21:00,VALID,917.644,VALID,0,VALID,97.485,VALID,-0.0339617,VALID,17.1864,VALID,138,VALID,0.578993,
2002-09-22, 02:22:00,VALID,917.648,VALID,0,VALID,97.3871,VALID,0,VALID,17.1924,VALID,138,VALID,0.593956,
2002-09-22, 02:23:00,VALID,917.635,VALID,0,VALID,97.2574,VALID,-0.0339617,VALID,17.1892,VALID,138,VALID,0.737695,
2002-09-22, 02:24:00,VALID,917.631,VALID,0,VALID,97.1366,VALID,-0.0509425,VALID,17.2026,VALID,138,VALID,0.757401,
2002-09-22, 02:25:00,VALID,917.618,VALID,0,VALID,97.0629,VALID,-0.0339617,VALID,17.1965,VALID,137,VALID,0.804482,
2002-09-22, 02:26:00,VALID,917.604,VALID,0,VALID,96.9878,VALID,-0.0339617,VALID,17.183,VALID,138,VALID,0.920313,
2002-09-22, 02:27:00,VALID,917.583,VALID,0,VALID,96.9548,VALID,-0.0509425,VALID,17.1864,VALID,136,VALID,0.779647,
2002-09-22, 02:28:00,VALID,917.58,VALID,0,VALID,96.923,VALID,-0.0509425,VALID,17.1899,VALID,128,VALID,0.849029,
2002-09-22, 02:29:00,VALID,917.567,VALID,0,VALID,96.956,VALID,-0.0849042,VALID,17.1737,VALID,119,VALID,1.14431,
2002-09-22, 02:30:00,VALID,917.549,VALID,0,VALID,96.9738,VALID,-0.0339617,VALID,17.1899,VALID,121,VALID,1.1244,
2002-09-22, 02:31:01,VALID,917.547,VALID,0,VALID,96.9484,VALID,-0.0339617,VALID,17.1864,VALID,132,VALID,0.688556,
2002-09-22, 02:32:01,VALID,917.531,VALID,0,VALID,96.9255,VALID,0.0509425,VALID,17.1922,VALID,139,VALID,0.896115,
2002-09-22, 02:33:00,VALID,917.528,VALID,0,VALID,97.1137,VALID,0.0679233,VALID,17.2112,VALID,143,VALID,1.12862,
2002-09-22, 02:34:00,VALID,917.509,VALID,0,VALID,97.2638,VALID,0.0849042,VALID,17.2241,VALID,137,VALID,1.01985,
2002-09-22, 02:35:01,VALID,917.497,VALID,0,VALID,97.4507,VALID,0.0679233,VALID,17.237,VALID,137,VALID,0.943359,
2002-09-22, 02:36:00,VALID,917.479,VALID,0,VALID,97.5295,VALID,0.0679233,VALID,17.2335,VALID,133,VALID,1.22696,
2002-09-22, 02:37:00,VALID,917.47,VALID,0,VALID,97.6554,VALID,0.0849042,VALID,17.2206,VALID,138,VALID,0.826953,
2002-09-22, 02:38:00,VALID,917.462,VALID,0,VALID,97.8093,VALID,0.0679233,VALID,17.2047,VALID,140,VALID,1.06538,
2002-09-22, 02:39:01,VALID,917.45,VALID,0,VALID,97.9568,VALID,0.101885,VALID,17.1946,VALID,142,VALID,0.958059,
2002-09-22, 02:40:00,VALID,917.446,VALID,0,VALID,98.0394,VALID,0.0679233,VALID,17.1754,VALID,138,VALID,0.774282,
2002-09-22, 02:41:00,VALID,917.434,VALID,0,VALID,98.1323,VALID,0.0849042,VALID,17.1722,VALID,135,VALID,0.737109,
2002-09-22, 02:42:00,VALID,917.427,VALID,0,VALID,98.2086,VALID,0.0849042,VALID,17.1526,VALID,132,VALID,0.737413,
2002-09-22, 02:43:00,VALID,917.421,VALID,0,VALID,98.2899,VALID,0.0679233,VALID,17.1434,VALID,143,VALID,0.480785,
2002-09-22, 02:44:00,VALID,917.411,VALID,0,VALID,98.3484,VALID,0.0849042,VALID,17.1339,VALID,127,VALID,0.653988,
2002-09-22, 02:45:01,VALID,917.407,VALID,0,VALID,98.4489,VALID,0.0679233,VALID,17.1141,VALID,113,VALID,1.17827,
2002-09-22, 02:46:00,VALID,917.392,VALID,0,VALID,98.5366,VALID,0.0849042,VALID,17.1175,VALID,108,VALID,1.33594,
2002-09-22, 02:47:01,VALID,917.394,VALID,0,VALID,98.5989,VALID,0.0339617,VALID,17.1083,VALID,98,VALID,1.23281,
2002-09-22, 02:48:00,VALID,917.384,VALID,0,VALID,98.6371,VALID,-0.0339617,VALID,17.1156,VALID,93,VALID,1.12747,
2002-09-22, 02:49:01,VALID,917.381,VALID,0,VALID,98.6244,VALID,0,VALID,17.0924,VALID,92,VALID,1.26357,
2002-09-22, 02:50:01,VALID,917.383,VALID,0,VALID,98.6574,VALID,0,VALID,17.0827,VALID,100,VALID,1.23417,
2002-09-22, 02:51:00,VALID,917.39,VALID,0,VALID,98.6676,VALID,0,VALID,17.0665,VALID,107,VALID,0.982772,
2002-09-22, 02:52:01,VALID,917.385,VALID,0,VALID,98.7096,VALID,0.0169808,VALID,17.0637,VALID,118,VALID,1.38028,
2002-09-22, 02:53:00,VALID,917.371,VALID,0,VALID,98.7019,VALID,-0.0169808,VALID,17.0637,VALID,115,VALID,0.967928,
2002-09-22, 02:54:00,VALID,917.355,VALID,0,VALID,98.7096,VALID,-0.0169808,VALID,17.0474,VALID,107,VALID,1.01758,
2002-09-22, 02:55:00,VALID,917.336,VALID,0,VALID,98.7439,VALID,-0.0509425,VALID,17.0513,VALID,114,VALID,1.29601,
2002-09-22, 02:56:01,VALID,917.306,VALID,0,VALID,98.8024,VALID,-0.0169808,VALID,17.0612,VALID,120,VALID,1.4204,
2002-09-22, 02:57:00,VALID,917.295,VALID,0,VALID,98.8749,VALID,-0.0339617,VALID,17.0868,VALID,121,VALID,1.46628,
2002-09-22, 02:58:00,VALID,917.281,VALID,0,VALID,98.8685,VALID,-0.0339617,VALID,17.0962,VALID,141,VALID,0.957143,
2002-09-22, 02:59:00,VALID,917.281,VALID,0,VALID,98.8456,VALID,-0.0339617,VALID,17.1057,VALID,137,VALID,1.13429,
2002-09-22, 03:00:00,VALID,917.271,VALID,0,VALID,98.8342,VALID,-0.0169808,VALID,17.0829,VALID,124,VALID,0.872327,
2002-09-22, 03:01:00,VALID,917.264,VALID,0,VALID,98.791,VALID,-0.0339617,VALID,17.0704,VALID,101,VALID,1.00424,
2002-09-22, 03:02:01,VALID,917.27,VALID,0,VALID,98.7999,VALID,-0.0169808,VALID,17.0726,VALID,106,VALID,0.830329,
2002-09-22, 03:03:00,VALID,917.276,VALID,0,VALID,98.8316,VALID,0,VALID,17.0597,VALID,121,VALID,1.00022,
2002-09-22, 03:04:00,VALID,917.264,VALID,0,VALID,98.8711,VALID,0.0169808,VALID,17.0726,VALID,130,VALID,0.724507,
2002-09-22, 03:05:00,VALID,917.284,VALID,0,VALID,98.8329,VALID,0,VALID,17.0859,VALID,137,VALID,0.63898,
2002-09-22, 03:06:00,VALID,917.265,VALID,0,VALID,98.8126,VALID,0,VALID,17.0728,VALID,127,VALID,0.70777,
2002-09-22, 03:07:00,VALID,917.263,VALID,0,VALID,98.7859,VALID,0.0509425,VALID,17.0689,VALID,128,VALID,0.678711,
2002-09-22, 03:08:00,VALID,917.261,VALID,0,VALID,98.7757,VALID,0.0169808,VALID,17.0663,VALID,127,VALID,0.676482,
2002-09-22, 03:09:00,VALID,917.25,VALID,0,VALID,98.7884,VALID,0,VALID,17.0532,VALID,115,VALID,0.909655,
2002-09-22, 03:10:01,VALID,917.243,VALID,0,VALID,98.7999,VALID,0,VALID,17.056,VALID,114,VALID,0.934544,
2002-09-22, 03:11:00,VALID,917.238,VALID,0,VALID,98.7732,VALID,0.0169808,VALID,17.076,VALID,108,VALID,0.865986,
2002-09-22, 03:12:00,VALID,917.239,VALID,0,VALID,98.674,VALID,0,VALID,17.0919,VALID,84,VALID,0.558364,
2002-09-22, 03:13:00,VALID,917.23,VALID,0,VALID,98.3866,VALID,0.0169808,VALID,17.0465,VALID,66,VALID,0.558008,
2002-09-22, 03:14:00,VALID,917.242,VALID,0,VALID,98.2747,VALID,0.0169808,VALID,17.011,VALID,86,VALID,0.85773,
2002-09-22, 03:15:00,VALID,917.218,VALID,0,VALID,98.2747,VALID,0.0339617,VALID,17.0046,VALID,100,VALID,0.720753,
2002-09-22, 03:16:00,VALID,917.227,VALID,0,VALID,98.1806,VALID,0.0169808,VALID,17.002,VALID,90,VALID,0.462993,
2002-09-22, 03:17:00,VALID,917.232,VALID,0,VALID,98.0636,VALID,0.0169808,VALID,16.966,VALID,88,VALID,0.521094,
2002-09-22, 03:18:00,VALID,917.23,VALID,0,VALID,98.0165,VALID,0.0339617,VALID,16.9471,VALID,93,VALID,0.550195,
2002-09-22, 03:19:01,VALID,917.233,VALID,0,VALID,97.9911,VALID,0.0169808,VALID,16.9178,VALID,93,VALID,0.325521,
2002-09-22, 03:20:00,VALID,917.229,VALID,0,VALID,97.8779,VALID,0,VALID,16.8985,VALID,93,VALID,0.506373,
2002-09-22, 03:21:00,VALID,917.233,VALID,0,VALID,97.9136,VALID,0,VALID,16.8563,VALID,112,VALID,0.650441,
2002-09-22, 03:22:00,VALID,917.216,VALID,0,VALID,97.9453,VALID,0.0339617,VALID,16.8692,VALID,124,VALID,1.03806,
2002-09-22, 03:23:01,VALID,917.241,VALID,0,VALID,97.7673,VALID,0.0169808,VALID,16.8948,VALID,122,VALID,0.512035,
2002-09-22, 03:24:00,VALID,917.252,VALID,0,VALID,97.5181,VALID,-0.0169808,VALID,16.9049,VALID,122,VALID,0.247796,
2002-09-22, 03:25:00,VALID,917.277,VALID,0,VALID,97.321,VALID,-0.0509425,VALID,16.9193,VALID,122,VALID,0.12717,
2002-09-22, 03:26:01,VALID,917.282,VALID,0,VALID,97.1926,VALID,-0.0849042,VALID,16.8995,VALID,122,VALID,0.00260417,
2002-09-22, 03:27:00,VALID,917.292,VALID,0,VALID,96.8734,VALID,-0.101885,VALID,16.8479,VALID,122,VALID,0,
2002-09-22, 03:28:00,VALID,917.302,VALID,0,VALID,96.7729,VALID,-0.101885,VALID,16.787,VALID,122,VALID,0,
2002-09-22, 03:29:00,VALID,917.317,VALID,0,VALID,96.9103,VALID,-0.0849042,VALID,16.7674,VALID,83,VALID,0.239984,
2002-09-22, 03:30:00,VALID,917.321,VALID,0,VALID,96.8619,VALID,-0.0849042,VALID,16.7194,VALID,27,VALID,1.12418,
2002-09-22, 03:31:01,VALID,917.337,VALID,0,VALID,96.8479,VALID,-0.101885,VALID,16.6385,VALID,23,VALID,1.0745,